| time (UTC) | temp C | wind direction | speed KPH | gust KPH | rain 1hr cm | rain 24hr cm | rain mn cm | humidity % | barometer mb |
| 20260505050704 | 12 | 30 | 0.0 | 1.6 | 0.03 | 0.08 | 0.08 | 90 | 1007.7 |
| 20260505040204 | 12 | 30 | 0.0 | 0.0 | 0.05 | 0.05 | 0.05 | 85 | 1008.0 |
| 20260505033205 | 13 | 30 | 0.0 | 0.0 | 0.03 | 0.03 | 0.03 | 76 | 1008.0 |
| 20260505030704 | 15 | 30 | 0.0 | 3.2 | 0.00 | 0.00 | 0.00 | 69 | 1008.0 |
| 20260505024205 | 15 | 30 | 0.0 | 1.6 | 0.00 | 0.00 | 0.00 | 61 | 1008.4 |
| 20260505021205 | 15 | 30 | 0.0 | 1.6 | 0.00 | 0.00 | 0.00 | 54 | 1008.4 |
| 20260505014705 | 15 | 30 | 0.0 | 0.0 | 0.00 | 0.00 | 0.00 | 50 | 1008.5 |
| 20260505011205 | 15 | 30 | 0.0 | 0.0 | 0.00 | 0.00 | 0.00 | 53 | 1009.3 |
| 20260505010704 | 15 | 30 | 0.0 | 0.0 | 0.00 | 0.00 | 0.00 | 50 | 1009.3 |
| 20260505004705 | 15 | 30 | 0.0 | 1.6 | 0.00 | 0.00 | 0.00 | 51 | 1009.3 |
| 20260505004204 | 15 | 30 | 0.0 | 0.0 | 0.00 | 0.00 | 0.00 | 51 | 1009.3 |
| 20260504234705 | 16 | 30 | 0.0 | 0.0 | 0.00 | 0.00 | 0.00 | 51 | 1010.0 |
| 20260504233704 | 16 | 30 | 0.0 | 0.0 | 0.00 | 0.00 | 0.00 | 48 | 1010.0 |
| 20260504233204 | 16 | 30 | 0.0 | 0.0 | 0.00 | 0.00 | 0.00 | 48 | 1010.0 |
| 20260504231204 | 17 | 30 | 0.0 | 3.2 | 0.00 | 0.00 | 0.00 | 45 | 1009.9 |
| 20260504230208 | 17 | 30 | 0.0 | 1.6 | 0.00 | 0.00 | 0.00 | 46 | 1009.9 |
| 20260504223703 | 16 | 30 | 0.0 | 3.2 | 0.00 | 0.00 | 0.00 | 45 | 1010.5 |
| 20260504220705 | 16 | 30 | 0.0 | 3.2 | 0.00 | 0.00 | 0.00 | 46 | 1010.4 |
| 20260504220203 | 16 | 30 | 1.6 | 8.0 | 0.00 | 0.00 | 0.00 | 46 | 1010.4 |
| 20260504213204 | 16 | 30 | 0.0 | 4.8 | 0.00 | 0.00 | 0.00 | 46 | 1010.6 |
| 20260504211703 | 16 | 30 | 0.0 | 3.2 | 0.00 | 0.00 | 0.00 | 46 | 1010.6 |
| 20260504210204 | 16 | 30 | 0.0 | 4.8 | 0.00 | 0.00 | 0.00 | 46 | 1010.6 |
| 20260504204704 | 16 | 30 | 1.6 | 8.0 | 0.00 | 0.00 | 0.00 | 46 | 1010.6 |
| 20260504204203 | 16 | 30 | 0.0 | 4.8 | 0.00 | 0.00 | 0.00 | 47 | 1010.6 |
| 20260504200203 | 16 | 30 | 1.6 | 4.8 | 0.00 | 0.00 | 0.00 | 44 | 1010.5 |
| 20260504194203 | 17 | 30 | 3.2 | 4.8 | 0.00 | 0.00 | 0.00 | 47 | 1009.5 |
| 20260504193204 | 17 | 30 | 3.2 | 8.0 | 0.00 | 0.00 | 0.00 | 49 | 1009.5 |
| 20260504191703 | 17 | 30 | 0.0 | 3.2 | 0.00 | 0.00 | 0.00 | 52 | 1009.5 |
| 20260504190704 | 17 | 30 | 3.2 | 4.8 | 0.00 | 0.00 | 0.00 | 52 | 1009.5 |
| 20260504190204 | 17 | 30 | 1.6 | 4.8 | 0.00 | 0.00 | 0.00 | 51 | 1009.5 |
| 20260504184204 | 18 | 30 | 1.6 | 8.0 | 0.00 | 0.00 | 0.00 | 43 | 1009.5 |
| 20260504181703 | 21 | 30 | 0.0 | 0.0 | 0.00 | 0.00 | 0.00 | 40 | 1009.3 |
| 20260504180204 | 21 | 30 | 0.0 | 3.2 | 0.00 | 0.00 | 0.00 | 39 | 1009.3 |
| 20260504173706 | 22 | 30 | 0.0 | 1.6 | 0.00 | 0.00 | 0.00 | 37 | 1009.4 |
| 20260504173205 | 22 | 30 | 1.6 | 9.7 | 0.00 | 0.00 | 0.00 | 38 | 1009.4 |
| 20260504171205 | 22 | 30 | 1.6 | 4.8 | 0.00 | 0.00 | 0.00 | 42 | 1009.5 |
| 20260504150705 | 23 | 39 | 0.0 | 3.2 | 0.00 | 0.00 | 0.00 | 33 | 1010.1 |
| 20260504141205 | 23 | 40 | 3.2 | 8.0 | 0.00 | 0.00 | 0.00 | 33 | 1010.5 |
| 20260504140706 | 23 | 40 | 0.0 | 4.8 | 0.00 | 0.00 | 0.00 | 33 | 1010.6 |
| 20260504140205 | 23 | 42 | 1.6 | 4.8 | 0.00 | 0.00 | 0.00 | 36 | 1010.6 |
| 20260504130705 | 23 | 43 | 3.2 | 4.8 | 0.00 | 0.00 | 0.00 | 34 | 1011.1 |
| 20260504120205 | 22 | 24 | 1.6 | 4.8 | 0.00 | 0.00 | 0.00 | 31 | 1011.6 |
| 20260504081705 | 20 | 9 | 1.6 | 4.8 | 0.00 | 0.00 | 0.00 | 40 | 1012.6 |
| 20260504081205 | 19 | 9 | 1.6 | 4.8 | 0.00 | 0.00 | 0.00 | 41 | 1012.6 |
| 20260504080705 | 19 | 9 | 1.6 | 4.8 | 0.00 | 0.00 | 0.00 | 41 | 1012.6 |
| 20260504060205 | 15 | 9 | 0.0 | 3.2 | 0.00 | 0.00 | 0.00 | 56 | 1011.8 |